EW9828 Weather Reports


Display with metric or nautical units.
time (UTC)temp
F
wind
direction
speed
MPH
gust
MPH
rain 1hr
in
rain 24hr
in
rain mn
in
humidity
%
barometer
mb
20260506073011 63 5 0.0 0.0 0.00 0.00 0.00 75 1011.9
20260506071509 64 5 0.0 0.0 0.00 0.00 0.00 75 1012.0
20260506061503 65 5 0.0 0.0 0.00 0.00 0.00 73 1012.3
20260506050113 67 14 0.0 0.0 0.00 0.00 0.00 69 1012.8
20260506044553 67 5 0.0 0.0 0.00 0.00 0.00 68 1012.8
20260506043054 67 5 0.0 0.0 0.00 0.00 0.00 67 1012.8
20260506041547 68 5 0.0 0.0 0.00 0.00 0.00 66 1012.6
20260506040047 68 5 0.0 0.0 0.00 0.00 0.00 65 1012.5
20260506034549 68 5 0.0 0.0 0.00 0.00 0.00 63 1012.5
20260506033048 69 5 0.0 0.0 0.00 0.00 0.00 62 1012.5
20260506031549 68 5 0.0 0.0 0.00 0.00 0.00 60 1012.7
20260506030047 68 5 0.0 0.0 0.00 0.00 0.00 59 1012.7
20260506024553 69 5 0.0 0.0 0.00 0.00 0.00 57 1012.7
20260506023042 69 5 0.0 0.0 0.00 0.00 0.00 56 1012.7
20260506021556 70 5 0.0 0.0 0.00 0.00 0.00 55 1012.7
20260506020041 70 5 0.0 0.0 0.00 0.00 0.00 55 1012.5
20260506014541 70 5 0.0 0.0 0.00 0.00 0.00 54 1012.4
20260506013050 71 5 0.0 0.0 0.00 0.00 0.00 53 1012.2
20260506011540 71 5 0.0 0.0 0.00 0.00 0.00 53 1012.1
20260506010039 71 5 0.0 0.0 0.00 0.00 0.00 52 1012.0
20260506004538 72 5 0.0 0.0 0.00 0.00 0.00 50 1011.8
20260506003038 73 5 0.0 0.0 0.00 0.00 0.00 46 1011.7
20260506001541 74 5 0.0 0.0 0.00 0.00 0.00 44 1011.7
20260506000040 75 5 0.0 0.0 0.00 0.00 0.00 43 1011.6
20260505234537 76 5 0.0 0.0 0.00 0.00 0.00 42 1011.4
20260505233038 77 5 0.0 0.0 0.00 0.00 0.00 42 1011.4
20260505231542 77 5 0.0 0.0 0.00 0.00 0.00 42 1011.3
20260505230037 78 5 0.0 0.0 0.00 0.00 0.00 42 1011.4
20260505224536 78 5 0.0 0.0 0.00 0.00 0.00 41 1011.4
20260505223036 79 5 0.0 0.0 0.00 0.00 0.00 41 1011.5
20260505221536 79 5 0.0 0.0 0.00 0.00 0.00 41 1011.6
20260505220033 80 5 0.0 0.0 0.00 0.00 0.00 40 1011.5
20260505214546 80 5 0.0 0.0 0.00 0.00 0.00 40 1011.7
20260505213129 80 5 0.0 0.0 0.00 0.00 0.00 37 1011.7
20260505211532 80 26 0.0 0.0 0.00 0.00 0.00 39 1011.7
20260505210028 81 29 0.0 0.0 0.00 0.00 0.00 36 1011.7
20260505204526 82 21 0.0 0.0 0.00 0.00 0.00 37 1011.9
20260505203026 82 21 0.0 0.0 0.00 0.00 0.00 35 1011.8
20260505201524 82 5 0.0 0.0 0.00 0.00 0.00 35 1012.0
20260505200027 82 11 0.0 0.0 0.00 0.00 0.00 34 1012.2
20260505194522 82 10 0.0 0.0 0.00 0.00 0.00 33 1012.3
20260505193021 82 10 0.0 0.0 0.00 0.00 0.00 34 1012.4
20260505191520 81 13 0.0 0.0 0.00 0.00 0.00 34 1012.6
20260505190027 82 12 0.0 0.0 0.00 0.00 0.00 35 1012.8
20260505184519 82 15 0.0 0.0 0.00 0.00 0.00 33 1013.0
20260505183021 82 14 0.0 0.0 0.00 0.00 0.00 33 1013.0
20260505181518 83 22 0.0 0.0 0.00 0.00 0.00 32 1013.4
20260505180015 83 13 0.0 0.0 0.00 0.00 0.00 34 1013.4
20260505174512 83 13 0.0 0.0 0.00 0.00 0.00 34 1013.7
20260505173009 82 11 0.0 0.0 0.00 0.00 0.00 36 1013.8
20260505171508 81 11 0.0 0.0 0.00 0.00 0.00 39 1013.9
20260505170007 80 12 0.0 0.0 0.00 0.00 0.00 42 1014.2
20260505164501 79 12 0.0 0.0 0.00 0.00 0.00 42 1014.3
20260505163101 78 13 0.0 0.0 0.00 0.00 0.00 41 1014.6
20260505161605 79 13 0.0 0.0 0.00 0.00 0.00 41 1014.7
20260505153058 76 12 0.0 0.0 0.00 0.00 0.00 46 1015.0
20260505151544 75 12 0.0 0.0 0.00 0.00 0.00 51 1015.1
20260505124521 64 11 0.0 0.0 0.00 0.00 0.00 68 1015.1
20260505123014 62 11 0.0 0.0 0.00 0.00 0.00 73 1015.3
20260505121512 60 11 0.0 0.0 0.00 0.00 0.00 74 1015.3
20260505120024 58 11 0.0 0.0 0.00 0.00 0.00 77 1015.0
20260505114507 56 11 0.0 0.0 0.00 0.00 0.00 81 1014.9
20260505113005 54 11 0.0 0.0 0.00 0.00 0.00 84 1014.8
20260505111511 53 11 0.0 0.0 0.00 0.00 0.00 84 1014.8
20260505101556 55 11 0.0 0.0 0.00 0.00 0.00 78 1014.4
20260505100052 56 11 0.0 0.0 0.00 0.00 0.00 76 1014.3
20260505094549 57 11 0.0 0.0 0.00 0.00 0.00 75 1014.2
20260505093057 57 11 0.0 0.0 0.00 0.00 0.00 74 1014.1
20260505091600 57 11 0.0 0.0 0.00 0.00 0.00 73 1014.1
20260505090043 58 11 0.0 0.0 0.00 0.00 0.00 72 1014.0
20260505084543 58 11 0.0 0.0 0.00 0.00 0.00 71 1013.9
20260505083041 59 11 0.0 0.0 0.00 0.00 0.00 69 1013.9
20260505081538 59 11 0.0 0.0 0.00 0.00 0.00 68 1013.8